DB0TV-13 Weather Reports


Display with metric or nautical units.
time (UTC)temp
F
wind
direction
speed
MPH
gust
MPH
rain 1hr
in
rain 24hr
in
rain mn
in
humidity
%
barometer
mb
20260503181018 58 158 3.0 9.0 0.00 0.11 0.00 84 1011.5
20260503180018 58 158 4.0 8.0 0.00 0.11 0.00 84 1011.5
20260503175018 59 158 4.0 8.0 0.00 0.11 0.00 84 1011.4
20260503174020 58 135 3.0 6.0 0.00 0.11 0.00 85 1011.4
20260503173020 58 158 2.0 5.0 0.00 0.11 0.00 85 1011.4
20260503172020 58 180 3.0 7.0 0.00 0.11 0.00 85 1011.5
20260503171018 58 203 4.0 8.0 0.00 0.11 0.00 85 1011.6
20260503131019 67 203 7.0 15.0 0.00 0.11 0.00 54 1011.6
20260503081019 65 158 5.0 11.0 0.00 0.11 0.00 56 1012.0
20260503072019 64 135 6.0 12.0 0.00 0.11 0.00 58 1012.2
20260503071019 63 135 5.0 14.0 0.00 0.11 0.00 58 1012.1
20260503055019 60 158 4.0 12.0 0.00 0.11 0.00 64 1012.5
20260503054019 59 158 4.0 11.0 0.00 0.11 0.00 65 1012.4
20260503053019 58 135 4.0 9.0 0.00 0.11 0.00 67 1012.4
20260503052019 58 135 3.0 10.0 0.00 0.11 0.00 66 1012.2
20260503051019 58 158 3.0 8.0 0.00 0.11 0.00 67 1012.2
20260503050019 58 135 3.0 9.0 0.00 0.11 0.00 67 1012.2
20260503045019 57 158 2.0 7.0 0.00 0.11 0.00 68 1012.1
20260503044019 58 180 1.0 3.0 0.00 0.11 0.00 69 1012.1
20260503043018 58 135 2.0 8.0 0.00 0.11 0.00 68 1012.2
20260503042019 58 158 1.0 3.0 0.00 0.11 0.00 69 1012.4
20260503041019 58 135 1.0 5.0 0.00 0.11 0.00 69 1012.5
20260503040019 58 158 1.0 2.0 0.00 0.11 0.00 69 1012.4
20260503035018 58 180 1.0 4.0 0.00 0.11 0.00 70 1012.5
20260503034019 58 158 1.0 2.0 0.00 0.11 0.00 70 1012.5
20260503033019 58 270 1.0 3.0 0.00 0.11 0.00 71 1012.5
20260503032019 58 0.0 3.0 0.00 0.11 0.00 72 1012.4
20260503031018 58 0.0 2.0 0.00 0.11 0.00 73 1012.6
20260503030018 58 0.0 0.0 0.00 0.11 0.00 74 1012.7
20260503025019 57 180 1.0 4.0 0.00 0.11 0.00 75 1012.7
20260503024018 57 0.0 2.0 0.00 0.11 0.00 77 1012.6
20260503023018 57 203 1.0 4.0 0.00 0.11 0.00 78 1012.7
20260503022018 57 0.0 2.0 0.00 0.11 0.00 80 1012.9
20260503021019 57 158 1.0 4.0 0.00 0.11 0.00 82 1012.9
20260503020018 57 158 1.0 4.0 0.00 0.11 0.00 83 1013.0
20260503015018 57 0.0 0.0 0.00 0.11 0.00 83 1013.1
20260503014018 58 203 1.0 4.0 0.00 0.11 0.00 83 1013.2
20260503013018 58 225 1.0 3.0 0.00 0.11 0.00 84 1013.5
20260503012018 57 0.0 3.0 0.00 0.11 0.00 85 1013.4
20260503011018 58 293 2.0 4.0 0.00 0.11 0.00 85 1013.5
20260503010018 58 0.0 2.0 0.00 0.11 0.00 85 1013.4
20260503005018 58 158 1.0 3.0 0.00 0.11 0.00 86 1013.6
20260503004018 58 158 1.0 2.0 0.00 0.11 0.00 87 1013.6
20260503003018 58 0.0 4.0 0.00 0.11 0.00 88 1013.7
20260503002018 57 180 1.0 5.0 0.00 0.11 0.00 90 1013.7
20260503001020 57 0.0 3.0 0.00 0.11 0.00 90 1013.9
20260503000018 57 0.0 0.0 0.00 0.11 0.00 90 1013.9
20260502235018 57 0.0 2.0 0.00 0.11 0.00 91 1014.1
20260502234018 57 90 1.0 3.0 0.00 0.11 0.00 91 1014.2
20260502233020 57 0.0 0.0 0.00 0.11 0.00 91 1014.3
20260502232018 57 0.0 0.0 0.00 0.11 0.00 91 1014.4
20260502231018 57 0.0 1.0 0.00 0.11 0.00 91 1014.5
20260502230020 57 0.0 0.0 0.00 0.11 0.00 91 1014.7
20260502225020 57 0.0 0.0 0.00 0.11 0.00 90 1014.8
20260502224018 57 0.0 0.0 0.00 0.11 0.00 90 1014.7
20260502223018 57 0.0 0.0 0.00 0.11 0.00 90 1014.6
20260502222020 58 0.0 2.0 0.00 0.11 0.00 90 1014.6
20260502221020 57 45 1.0 4.0 0.00 0.11 0.00 91 1014.8
20260502220020 57 68 2.0 4.0 0.00 0.11 0.11 92 1014.8
20260502215019 57 68 1.0 3.0 0.00 0.11 0.11 92 1014.9
20260502214018 57 68 3.0 5.0 0.00 0.11 0.11 92 1015.0
20260502213018 57 68 1.0 4.0 0.00 0.11 0.11 92 1015.0
20260502212018 57 68 4.0 9.0 0.00 0.11 0.11 93 1015.2
20260502211019 57 45 1.0 6.0 0.00 0.11 0.11 92 1015.3
20260502210019 58 68 1.0 4.0 0.00 0.11 0.11 92 1015.4
20260502205018 58 45 3.0 6.0 0.00 0.11 0.11 92 1015.5
20260502204018 58 68 1.0 3.0 0.06 0.11 0.11 91 1015.8
20260502203019 58 270 1.0 3.0 0.11 0.11 0.11 91 1015.9
20260502202019 58 0.0 2.0 0.11 0.11 0.11 90 1015.8
20260502201018 58 23 1.0 7.0 0.11 0.11 0.11 90 1015.8
20260502200018 58 338 2.0 5.0 0.11 0.11 0.11 89 1015.8
20260502195018 59 293 3.0 10.0 0.11 0.11 0.11 87 1015.8
20260502194018 60 270 4.0 9.0 0.05 0.05 0.05 83 1016.0
20260502193018 63 293 6.0 17.0 0.00 0.00 0.00 79 1016.1
20260502192018 64 270 5.0 10.0 0.00 0.00 0.00 74 1015.4
20260502191018 64 113 1.0 2.0 0.00 0.00 0.00 67 1014.7
20260502190018 64 113 2.0 6.0 0.00 0.00 0.00 66 1014.7
20260502185018 65 113 1.0 4.0 0.00 0.00 0.00 66 1014.7
20260502184018 65 113 3.0 7.0 0.00 0.00 0.00 66 1014.9
20260502183018 66 113 2.0 6.0 0.00 0.00 0.00 66 1015.1
20260502182018 66 113 2.0 6.0 0.00 0.00 0.00 67 1015.2